Dati Storici

Data ora Umidita' aria (%) Temperatura aria (°C) Rad globale (W/m²) Gonioanemometro (°) Tacoanemometro (m/s) Pioggia (mm)
20-10-2012 03:20 92.5 % 11.848 1.875 220.942 0.594 0
20-10-2012 03:10 92.6 % 12.002 1.939 225.414 0.848 0
20-10-2012 03:00 92.5 % 12.106 2.067 255.449 0.579 0
20-10-2012 02:50 92.8 % 12.227 1.965 239.28 0.626 0
20-10-2012 02:40 92.8 % 12.207 1.849 235.386 0.471 0
20-10-2012 02:30 92.3 % 12.058 1.824 246.746 0.732 0
20-10-2012 02:20 92.1 % 12.07 1.939 244.291 0.567 0
20-10-2012 02:10 91.8 % 12.038 2.003 218.269 0.596 0
20-10-2012 02:00 91.3 % 11.989 1.588 247.565 0.631 0
20-10-2012 01:50 91 % 12.042 1.665 219.85 0.586 0
20-10-2012 01:40 90.8 % 12.188 1.485 233.277 0.576 0
20-10-2012 01:30 90.2 % 12.234 1.28 234.646 0.281 0
20-10-2012 01:20 90 % 12.417 1.691 243.878 0.636 0
20-10-2012 01:10 90 % 12.521 1.472 273.537 1.457 0
20-10-2012 01:00 89.9 % 12.609 1.447 275.733 1.499 0
20-10-2012 00:50 89 % 12.631 1.498 268.892 0.537 0
20-10-2012 00:40 88.5 % 12.755 1.395 250.276 0.945 0
20-10-2012 00:30 87.9 % 12.856 1.447 235.932 1.292 0
20-10-2012 00:20 87.4 % 13.059 1.331 236.52 1.532 0
20-10-2012 00:10 87.1 % 13.19 1.319 236.081 0.8 0

I dati sono presentati in modo automatico a scopo informativo. In seguito a verifica i dati possono subire modifiche o essere invalidati e non riportati negli archivi definitivi.